TimeHST,TemperatureF,Dew PointF,Humidity,Sea Level PressureIn,VisibilityMPH,Wind Direction,Wind SpeedMPH,Gust SpeedMPH,PrecipitationIn,Events,Conditions,WindDirDegrees,DateUTC
12:53 AM,79.0,71.1,77,30.05,10.0,ENE,8.1,-,N/A,,Partly Cloudy,60,2013-09-08 10:53:00
1:22 AM,77.0,71.6,83,30.06,10.0,ESE,10.4,-,0.00,,Overcast,110,2013-09-08 11:22:00
1:50 AM,75.2,71.6,89,30.05,4.0,ESE,12.7,18.4,0.29,Rain,Light Rain,110,2013-09-08 11:50:00
1:53 AM,77.0,72.0,84,30.04,5.0,ESE,12.7,18.4,0.29,Rain,Light Rain,110,2013-09-08 11:53:00
2:37 AM,77.0,71.6,83,30.04,10.0,ENE,12.7,-,0.06,,Mostly Cloudy,70,2013-09-08 12:37:00
2:53 AM,77.0,71.1,82,30.03,10.0,ENE,13.8,-,0.06,,Partly Cloudy,60,2013-09-08 12:53:00
3:53 AM,77.0,71.1,82,30.02,10.0,ENE,12.7,-,N/A,,Partly Cloudy,60,2013-09-08 13:53:00
4:33 AM,77.0,69.8,78,30.03,10.0,ENE,11.5,-,N/A,,Scattered Clouds,70,2013-09-08 14:33:00
4:53 AM,77.0,70.0,79,30.03,10.0,ENE,11.5,-,N/A,,Scattered Clouds,60,2013-09-08 14:53:00
5:46 AM,78.8,71.6,78,30.04,10.0,NE,11.5,-,N/A,,Mostly Cloudy,50,2013-09-08 15:46:00
5:53 AM,77.0,71.1,82,30.04,10.0,ENE,11.5,-,N/A,,Mostly Cloudy,60,2013-09-08 15:53:00
6:05 AM,77.0,71.6,83,30.05,10.0,NE,11.5,-,N/A,,Scattered Clouds,50,2013-09-08 16:05:00
6:53 AM,78.1,71.1,79,30.05,10.0,ENE,9.2,-,N/A,,Mostly Cloudy,60,2013-09-08 16:53:00
7:04 AM,78.8,71.6,78,30.06,10.0,ENE,9.2,-,N/A,,Mostly Cloudy,60,2013-09-08 17:04:00
7:11 AM,78.8,71.6,78,30.06,10.0,ENE,10.4,-,N/A,,Scattered Clouds,70,2013-09-08 17:11:00
7:24 AM,80.6,71.6,74,30.06,10.0,ENE,9.2,-,N/A,,Mostly Cloudy,60,2013-09-08 17:24:00
7:53 AM,79.0,71.1,77,30.05,10.0,NE,10.4,-,N/A,,Mostly Cloudy,50,2013-09-08 17:53:00
8:32 AM,80.6,71.6,74,30.07,10.0,ENE,10.4,-,N/A,,Mostly Cloudy,60,2013-09-08 18:32:00
8:53 AM,82.0,72.0,71,30.07,10.0,ENE,11.5,-,N/A,,Partly Cloudy,60,2013-09-08 18:53:00
9:53 AM,82.9,72.0,69,30.08,10.0,ENE,10.4,-,N/A,,Partly Cloudy,60,2013-09-08 19:53:00
10:40 AM,82.4,71.6,70,30.08,10.0,ENE,11.5,-,N/A,,Mostly Cloudy,70,2013-09-08 20:40:00
10:50 AM,84.2,71.6,66,30.08,10.0,ENE,12.7,-,N/A,,Mostly Cloudy,60,2013-09-08 20:50:00
10:53 AM,84.9,72.0,65,30.08,10.0,ENE,10.4,-,N/A,,Mostly Cloudy,60,2013-09-08 20:53:00
11:53 AM,84.9,72.0,65,30.07,10.0,ENE,13.8,-,N/A,,Scattered Clouds,60,2013-09-08 21:53:00
12:53 PM,84.9,72.0,65,30.06,10.0,NE,11.5,-,N/A,,Scattered Clouds,50,2013-09-08 22:53:00
1:53 PM,86.0,72.0,63,30.04,10.0,ENE,11.5,-,N/A,,Partly Cloudy,60,2013-09-08 23:53:00
2:53 PM,84.0,71.1,65,30.03,10.0,NE,11.5,-,N/A,,Scattered Clouds,50,2013-09-09 00:53:00
3:09 PM,84.2,71.6,66,30.04,10.0,NE,11.5,-,N/A,,Mostly Cloudy,50,2013-09-09 01:09:00
3:27 PM,84.2,71.6,66,30.03,10.0,NE,10.4,-,N/A,,Scattered Clouds,50,2013-09-09 01:27:00
3:53 PM,84.0,72.0,67,30.03,10.0,NE,10.4,-,N/A,,Scattered Clouds,50,2013-09-09 01:53:00
4:14 PM,84.2,71.6,66,30.03,10.0,NE,11.5,-,N/A,,Mostly Cloudy,50,2013-09-09 02:14:00
4:38 PM,82.4,71.6,70,30.03,10.0,NE,11.5,-,N/A,,Scattered Clouds,40,2013-09-09 02:38:00
4:53 PM,82.9,71.1,67,30.03,10.0,NE,10.4,-,N/A,,Scattered Clouds,40,2013-09-09 02:53:00
5:25 PM,80.6,69.8,70,30.04,10.0,ENE,11.5,-,N/A,,Mostly Cloudy,60,2013-09-09 03:25:00
5:53 PM,81.0,71.1,72,30.04,10.0,NE,11.5,-,N/A,,Mostly Cloudy,50,2013-09-09 03:53:00
6:13 PM,80.6,71.6,74,30.06,10.0,NE,10.4,-,N/A,,Mostly Cloudy,50,2013-09-09 04:13:00
6:53 PM,80.1,72.0,76,30.06,10.0,ENE,10.4,-,N/A,,Mostly Cloudy,60,2013-09-09 04:53:00
7:04 PM,80.6,71.6,74,30.06,10.0,ENE,11.5,-,N/A,,Mostly Cloudy,60,2013-09-09 05:04:00
7:19 PM,80.6,71.6,74,30.07,10.0,ENE,11.5,-,N/A,,Scattered Clouds,60,2013-09-09 05:19:00
7:53 PM,80.1,72.0,76,30.06,10.0,ENE,13.8,-,N/A,,Mostly Cloudy,70,2013-09-09 05:53:00
8:03 PM,78.8,71.6,78,30.07,10.0,ENE,12.7,-,N/A,,Scattered Clouds,70,2013-09-09 06:03:00
8:53 PM,79.0,72.0,79,30.09,10.0,ENE,15.0,-,N/A,,Partly Cloudy,60,2013-09-09 06:53:00
9:53 PM,79.0,71.1,77,30.10,10.0,ENE,10.4,-,N/A,,Scattered Clouds,60,2013-09-09 07:53:00
10:53 PM,79.0,71.1,77,30.09,10.0,ENE,15.0,-,N/A,,Scattered Clouds,70,2013-09-09 08:53:00
11:53 PM,79.0,70.0,74,30.09,10.0,ENE,13.8,-,N/A,,Partly Cloudy,70,2013-09-09 09:53:00